Location: *
(43.9905°S, 176.4941°W)
Time: 01:50:19
(UTC+00:00)

Genesis I - Pass Details

Date: 08 December 2019
Orbit: 494 x 529 km, 64.5° (Epoch: 25 January)

Event Time Altitude Azimuth Distance (km) Brightness Sun altitude
Exits shadow 10:03:32 50° 79° (ENE) 650 3.4 -19.9°
Drops below altitude 10° 10:06:59 10° 136° (SE) 1,733 6.1 -20.1°
Sets 10:09:13 0° 140° (SE) 2,629 7.2 -20.3°
